Location: Buch
(49.7331°N, 12.1098°E)
Time: 07:51:21
(UTC+00:00)

ATLAS 2AS CENTAUR R/B - Pass Details

Date: 12 May 2021
Orbit: 949 x 1263 km, 63.7° (Epoch: 07 May)

Event Time Altitude Azimuth Distance (km) Brightness Sun altitude
Rises 20:38:12 0° 316° (NW) 4,134 7.7 -14.3°
Reaches altitude 10° 20:41:03 10° 318° (NW) 3,129 6.6 -14.6°
Maximum altitude 20:48:34 77° 45° (NE) 1,159 2.9 -15.3°
Enters shadow 20:53:31 21° 129° (SE) 2,221 3.8 -15.7°
